FENGYUN 1C DEB

Satellite information

Favourite Embed

Satellite Type and Status

DEBRISIN ORBIT

Key statistics

Satellite FENGYUN 1C DEB at a glance.

Uptime

9715

Days in orbit

Revolutions

≈ 14.2

Per day

Orbit

SSO

Sun Synchronous Orbit

Inclination

98.1

Latest

Satellite identification and parameters

Extended collection of information and parameters for FENGYUN 1C DEB.

Object identification

Identified? True

Debris? True

Object name: FENGYUN 1C DEB

International designator: 1999-025ESZ

Object number (NORAD): 38514

Object ID (CCSDS): 38514

Country: PEOPLES REPUBLIC OF CHINA (PRC)

Current information (Y/N): Y

RCS size: SMALL

Orbital parameters

Period: 101.723 minutes

Inclination: 98.0508 deg

SMA: 7218.382 km

Apoapsis: 1036.083 km

Periapsis: 644.411 km

RAAN: 14.1431 deg

Eccentricy: 0.02713018

Argument of periapsis: 21.2008 deg

Mean anomaly: 340.016 deg

Mean motion: 14.15607976 rev/day

Mean motion (dot): 0.00024655 rev/day2

B* drag term: 0.0087950247 1/REarth

Two-line elements (TLE)

Creation date: Dec. 10, 2025, 7:58 p.m.

Reference frame: TEME

Reference center: EARTH

Epoch: Dec. 10, 2025, 8:11 a.m. UTC

TLE line 0: 0 FENGYUN 1C DEB

TLE line 1: 1 38514U 99025ESZ 25344.34103295 .00024655 00000-0 87950-2 0 9994

TLE line 2: 2 38514 98.0508 14.1431 0271302 21.2008 340.0160 14.15607976879627

Live tracking on map

Real-time ground track for satellite FENGYUN 1C DEB.

In-orbit conjunctions

A list of the most updated potential collisions computed for object FENGYUN 1C DEB.

Target Orbit TCA Probability of collision Miss distance Type
SL-3 R/B LEO 2025-10-12 00:53:45 0.0001083824 537.0 (m) ROCKET BODY
SL-8 R/B LEO 2025-04-12 15:17:47 0.0007134704 130.0 (m) ROCKET BODY
CZ-6A DEB LEO 2025-03-27 15:05:33 0.0001103144 27.0 (m) DEBRIS
COSMOS 2251 DEB LEO 2024-06-15 20:58:37 0.0001099303 75.0 (m) DEBRIS

Associated space launch

Chinese polar orbiting meteorological satellite

FENGYUN 1C DEB was lifted into orbit during the mission ‘Long March 4B | Feng Yun 1C’, on board a Long March 4B space rocket.

The launch took place on May 10, 1999, 1:33 a.m. from Launch Complex 7.

For more information about the launch, click the button.

Launch to space Long March 4B | Feng Yun 1C
Long March 4B | Feng Yun 1C

Agency: N/A

Status: Launch Successful

Launch date: May 10, 1999, 1:33 a.m. UTC

Rocket: Long March 4B

Launch pad: Launch Complex 7

Location: Taiyuan Satellite Launch Center, People's Republic of China

...

Latest news about this satellite

There are no fresh news available about this satellite. Check back as we update our databases every day.


Newsletter sign-up

Weekly statistics, charts and insights to help you stay on top of the space industry.